www.pogodaiklimat.ru
ПОГОДА в Ливно

Архив погоды в Ливно (Босния и Герцеговина)

Время
(UTC), дата
06 21.05
07 21.05
08 21.05
09 21.05
10 21.05
11 21.05
12 21.05
13 21.05
14 21.05
15 21.05
09 22.05
10 22.05
11 22.05
12 22.05
13 22.05
14 22.05
15 22.05
20 22.05
06 23.05
07 23.05
08 23.05
09 23.05
10 23.05
11 23.05
12 23.05
13 23.05
14 23.05
15 23.05
20 23.05
06 24.05
07 24.05
08 24.05
09 24.05
10 24.05
11 24.05
12 24.05
13 24.05
14 24.05
15 24.05
20 24.05
06 25.05
07 25.05
08 25.05
09 25.05
10 25.05
11 25.05
12 25.05
13 25.05
14 25.05
15 25.05
20 25.05
06 26.05
07 26.05
08 26.05
09 26.05
10 26.05
11 26.05
12 26.05
13 26.05
14 26.05
15 26.05
20 26.05
06 27.05
07 27.05
08 27.05
09 27.05
10 27.05
11 27.05
12 27.05
13 27.05
14 27.05
15 27.05
20 27.05
Ветер
(напр.,м/с)
Видим. Явления Облачность Т
(С)
Тd
(С)
f
(%)
Тe
(С)
Тes
(С)
Комфортность P
(гПа)
Po
(гПа)
Тmin
(С)
Tmax
(С)
R
(мм)
R24
(мм)
S
(см)
Ю 1 25 км ясно +13.6 +9.5 76 +14 +19 1021.2 937.4 +6.8 +25.9 0
В 1 25 км 1/0
[Ci fib]
+16.7 +10.6 67 +18 +27 1020.2 937.4
ЮЗ 1 25 км 1/0
[Ci fib]
+19.8 +11.6 59 +22 +36 комфорт 1018.8 937.0
СЗ 1 25 км ясно +23.4 +13.5 54 +27 +45 душно 1017.3 936.6
СЗ 2 25 км 1/1 1300 м
[Cu hum]
+25.6 +14.9 52 +28 +45 жарко 1016.1 936.1
ЮЗ 2 25 км 3/3 1300 м
[Cu hum]
+26.7 +15.0 49 +29 +43 жарко 1015.3 935.6
З 2 25 км 3/3 1200 м
[Cu hum]
+27.2 +16.3 51 +31 +43 душно 1014.5 935.1
З 3 25 км 4/4 1200 м
[Cu med, cong]
+28.1 +17.2 52 +32 +40 душно 1013.8 934.7
СЗ 4 20 км 5/5 1200 м
[Cb calv]
+28.2 +17.5 52 +32 +36 душно 1013.2 934.2
С 1 20 км в посл. час гроза {дождь} 5/5 1080 м
[Cb calv]
+26.6 +18.3 60 +31 +35 душно 1013.5 934.1
СЗ 1 20 км 5/4 1080 м
[Cu med, cong Ac lent]
+23.4 +16.4 65 +28 +38 душно 1011.7 931.5
Ю 2 20 км 6/6 1200 м
[Cu med, cong]
+24.6 +16.5 61 +28 +35 душно 1011.3 931.5
З 2 20 км 8/8 1080 м
[Cb calv]
+25.5 +16.3 57 +29 +33 душно 1010.9 931.3
СЗ 2 9000 м гроза, ливневой дождь 9/9 1000 м
[Cb cap]
+21.0 +15.8 72 +25 +27 комфорт 1011.9 931.1 0.5
Ю 2 10 км слаб. ливневой дождь, в посл. час гроза 8/8 1000 м
[Cb calv]
+22.1 +17.1 73 +27 +30 душно 1010.9 930.5
С 1 10 км гроза, ливневой дождь 9/9 1000 м
[Cb cap]
+22.4 +16.8 71 +27 +28 душно 1010.5 930.2
В 1 8000 м сильн. гроза, ливневой дождь 9/9 1000 м
[Cb cap]
+20.2 +17.8 86 +25 +25 комфорт 1011.0 930.1
ЮВ 1 15 км 4/4 700 м
[Sc]
+14.6 +13.4 93 +15 +15 1013.2 930.5
ЮВ 2 10 км слаб. дождь 9/9 1300 м
[Cb calv]
+13.7 +12.5 92 +13 +13 1012.1 929.2 +11.4 +26.5 17 17.3 0
Ю 1 15 км в посл. час дождь 9/1 480 м
[Cu hum Ac und]
+16.1 +14.5 90 +17 +20 1012.0 929.8
Ю 1 15 км 6/4 480 м
[Cu med, cong Ci fib]
+19.4 +16.5 83 +22 +31 комфорт 1010.7 929.6
Ю 2 10 км {дождь} 6/6 400 м
[Cu med, cong]
+21.8 +16.8 73 +26 +32 душно 1009.8 929.4
Ю 1 15 км 6/6 700 м
[Cu med, cong]
+23.6 +17.3 68 +27 +36 жарко 1009.3 929.4
Ю 2 15 км 8/8 800 м
[Cb calv]
+23.0 +16.8 68 +28 +32 душно 1009.4 929.3
З 2 15 км {дождь} 8/8 1000 м
[Cb calv]
+24.5 +17.4 65 +29 +32 душно 1008.4 928.8 0.1
З 3 15 км 9/6 1000 м
[Cb calv Ac cast]
+25.4 +16.4 57 +29 +31 душно 1007.7 928.4
З 4 15 км гроза без осадков 8/8 900 м
[Cb calv]
+25.7 +17.6 61 +30 +31 душно 1007.2 928.0
ЮЗ 4 15 км в посл. час гроза 8/6 900 м
[Cb calv Ac cuf]
+25.4 +16.9 59 +29 +30 душно 1007.0 927.7
В 1 20 км 1/0
[Ac lent]
+18.6 +15.5 82 +21 +21 комфорт 1010.7 929.3
С 1 20 км 8/0
[Ac lent Cs]
+14.4 +12.4 88 +15 +19 1012.1 929.4 +10.9 +26.2 0.1 0
С 1 20 км 6/0
[Cs]
+19.8 +14.4 71 +23 +31 комфорт 1010.8 929.7
В 1 20 км 6/0
[Cs]
+21.9 +14.9 64 +25 +38 комфорт 1010.0 929.5
Ю 3 20 км 6/0
[Cs]
+23.1 +15.3 61 +27 +39 душно 1009.4 929.3
Ю 3 20 км 6/0
[Cs]
+24.7 +15.8 58 +28 +41 душно 1008.3 928.7
Ю 4 20 км 6/1 1380 м
[Cu hum Cs]
+25.4 +16.4 57 +29 +39 душно 1008.2 928.8
Ю 5 20 км 4/1 1200 м
[Cu med, cong Ci fib]
+25.8 +15.5 53 +29 +37 душно 1007.8 928.5
Ю 5 20 км 4/1 1200 м
[Cu hum Ci fib]
+25.7 +15.9 55 +29 +36 душно 1007.5 928.2
Ю 5 20 км 4/1 1300 м
[Cu hum Ci fib]
+25.6 +15.3 53 +29 +34 душно 1007.6 928.3
Ю 5 20 км 4/0
[Ac lent Ci fib]
+25.4 +14.7 52 +28 +31 жарко 1007.7 928.3
В 1 20 км 5/0
[Ac lent Ci fib]
+17.6 +11.3 67 +19 +19 1011.5 929.7
В 1 20 км 6/1 1200 м
[Cu med, cong Ac lent Ci fib]
+20.6 +14.8 69 +24 +28 комфорт 1012.6 931.6 +14.1 +26.0 0
ЮВ 2 20 км 8/1 1200 м
[Cu med, cong Ac lent Ci fib]
+22.1 +14.1 60 +25 +30 комфорт 1012.5 931.9
Ю 4 20 км 8/0
[Ac trans Ci fib]
+23.4 +14.6 58 +27 +33 душно 1012.5 932.2
Ю 4 20 км 8/0
[Ac cast Ci fib]
+23.8 +14.3 55 +26 +34 жарко 1013.0 932.8
Ю 5 20 км 9/0
[Ac cast Ci fib]
+24.2 +14.8 56 +27 +33 жарко 1013.5 933.3
Ю 4 20 км 8/4 1300 м
[Cu med, cong Ci fib]
+24.9 +15.1 54 +28 +34 жарко 1013.5 933.5
Ю 4 20 км 8/0
[Ac lent Ci sp]
+25.8 +15.1 52 +29 +38 душно 1012.9 933.2
Ю 4 20 км 8/0
[As op Ci sp]
+25.2 +14.6 52 +28 +34 жарко 1012.8 932.9
Ю 5 20 км 5/0
[As op Ci sp]
+26.1 +15.0 50 +29 +33 жарко 1012.5 932.9
Ю 5 20 км 3/0
[Ac lent Ci fib]
+25.8 +15.3 52 +29 +32 душно 1013.0 933.3
СВ 1 20 км 8/0
[Ac lent Ci fib]
+18.2 +11.9 67 +20 +20 1017.2 935.1
З 1 20 км 3/0
[Ci fib]
+16.4 +11.9 75 +17 +22 1021.6 938.6 +10.4 +26.5 0
З 1 20 км 3/0
[Ci fib]
+19.0 +13.0 68 +21 +30 комфорт 1021.1 938.9
СЗ 1 20 км 3/0
[Ci fib]
+20.8 +14.7 68 +25 +39 комфорт 1020.5 938.9
З 1 20 км 5/1 1380 м
[Cu hum Cs]
+23.1 +15.2 61 +27 +43 душно 1019.8 938.9
З 2 20 км 6/1 1300 м
[Cu hum Ci fib]
+25.0 +15.9 57 +28 +43 жарко 1019.2 938.8
С 2 20 км 6/1 1380 м
[Cu med, cong Ci ing]
+26.1 +16.5 55 +30 +45 душно 1019.1 939.0
З 2 20 км 8/1 1500 м
[Cu hum Cs]
+26.2 +15.8 53 +29 +43 жарко 1018.8 938.8
СЗ 2 20 км 6/1 1300 м
[Cu med, cong Ac lent Ci fib]
+27.6 +16.2 50 +31 +41 душно 1018.0 938.4
СЗ 2 20 км 6/1 1300 м
[Cu med, cong Ac cast Ci fib]
+27.7 +15.6 48 +31 +38 душно 1017.7 938.1
СЗ 2 20 км 6/1 1300 м
[Cu med, cong Ac cast Ci ing]
+27.8 +15.6 47 +31 +35 душно 1017.5 938.0
ЮВ 1 20 км 3/0
[Ac lent]
+17.8 +12.4 71 +19 +19 1021.3 938.8
З 1 20 км 4/0
[Ac trans]
+16.8 +12.8 77 +18 +22 1020.9 938.1 +10.4 +28.1 0
З 1 20 км 5/0
[Ac trans Ci fib]
+19.7 +13.6 68 +23 +30 комфорт 1020.0 938.1
СЗ 1 20 км 6/0
[Ac lent Ci fib]
+22.2 +15.7 67 +26 +35 душно 1019.0 937.9
З 1 20 км 8/0
[Ac cast Ci fib]
+24.6 +16.8 62 +28 +40 душно 1017.8 937.5
З 2 20 км 8/1 1500 м
[Cu hum Ac cast Ci fib]
+26.0 +15.5 52 +29 +39 душно 1017.3 937.3
С 2 20 км 6/1 1500 м
[Cu hum Ac lent Ci fib]
+27.7 +15.6 48 +31 +43 душно 1015.9 936.5
СЗ 2 20 км 6/1 1500 м
[Cu hum Ac lent Ci fib]
+28.7 +16.2 47 +32 +44 душно 1015.1 936.0
З 2 20 км 6/1 1300 м
[Cu med, cong Ac lent Ci fib]
+29.2 +16.4 46 +33 +42 очень
душно
1014.1 935.2
З 3 20 км 5/1 1200 м
[Cu med, cong Ac lent Ci fib]
+28.7 +15.8 46 +32 +38 душно 1013.7 934.7
СЗ 3 20 км 4/1 1380 м
[Cu med, cong Ci fib]
+28.5 +15.6 46 +32 +37 душно 1013.0 934.0
ЮВ 1 20 км 5/0
[Ac lent]
+18.7 +12.5 67 +21 +21 комфорт 1015.9 934.0
Местоположение метеостанции Ливно (Босния и Герцеговина): широта 43.83 долгота 17.02 высота над уровнем моря 728 м.
В архиве по умолчанию представлена погода в Ливно за последнюю неделю. Архивные данные за месяц целиком и за предыдущие месяцы, начиная с января 2011 года, Вы можете получить, выбрав интересующий диапазон дат из раскрывающегося списка и нажав кнопку "Найти!".
*Определитесь, кто Вы:
Внимание! Время в таблицах - всемирное. Для получения местного времени необходимо прибавить поправку, которая равна 1 ч.
Смотрите также архив погоды в соседних городах и на ближайших метеорологических станциях:
Партнеры нашего сайта:      
Пояснения к столбцам:
  • Ветер - указаны скорость ветра в м/с - средняя за 10 мин, порывы в срок и между сроками (в фигурных скобках) и направление, откуда дует ветер: С - северный,
  • СВ - северо-восточный, В - восточный, ЮВ - юго-восточный, Ю - южный, ЮЗ - юго-западный, З - западный, СЗ - северо-западный.
  • Видимость - горизонтальная дальность видимости в метрах или километрах. При видимости от 1 до 10 км при отсутствии осадков обычно наблюдается дымка, при ухудшении видимости до 1 км и менее - туман. В сухую погоду видимость может ухудшаться дымом, пылью или мглою.
  • Явления - указаны атмосферные явления, наблюдавшиеся в срок или в последний час перед сроком; фигурными скобками обозначены явления, наблюдавшиеся между сроками (за 1-3 часа до срока); квадратными скобками обозначены град или гололедные отложения с указанием их диаметра в мм.
  • Облачность - указаны через наклонную черту общая и нижняя облачность в баллах и высота нижней границы облаков в метрах; квадратными скобками обозначены формы облаков: Ci - перистые, Cs - перисто-слоистые, Cc - перисто-кучевые, Ac - высококучевые, As - высокослоистые, Sc - слоисто-кучевые, Ns - слоисто-дождевые, Cu - кучевые, Cb - кучево-дождевые. Подробнее классификацию облаков см. в Атласе облаков (PDF).
  • T - Температура воздуха - температура, измеренная на высоте 2 м над землей.
  • Td - Температура точки росы - температура, при понижении до которой содержащийся в воздухе водяной пар достигнет насыщения.
  • f - Относительная влажность воздуха - влажноcть воздуха, измеренная на высоте 2 м над землей.
  • Te - Эффективная температура - температура, которую ощущает одетый по сезону человек в тени. Характеристика душности погоды. При расчете учитывается влияние влажности воздуха и скорости ветра на теплоощущения человека.
  • Tes - Эффективная температура на солнце - температура, которую ощущает человек, с поправкой на солнечный нагрев. Характеристика знойности погоды. Зависит от высоты солнца над горизонтом, облачности и скорости ветра. Ночью, в пасмурную погоду, а также при ветре 12 м/с и более поправка равна нулю.
  • P - Атмосферное давление - приведенное к уровню моря атмосферное давление.
  • Po - Атмосферное давление - измеренное на уровне метеостанции атмосферное давление.
  • Tmin - Минимальная температура - минимум температуры воздуха на высоте 2 м над землей.
  • Tmax - Максимальная температура - максимум температуры воздуха на высоте 2 м над землей.
  • R - Количество осадков - Количество выпавших осадков за период времени, мм. При наведении курсора мыши на число - период времени, за который выпало указанное количество осадков.
  • R24 - Количество осадков - Количество выпавших осадков за 24 часа, мм.
  • S - Снежный покров - Высота снежного покрова, см. При наведении курсора мыши на число - состояние снежного покрова и степень покрытия местности в баллах.